Weather History for K4MR - March, 2014

Change the Weather History Date:

Saturday, March 1, 2014

  Actual Average (KCVS) Record (KCVS)
Temperature  
Mean Temperature 56 °F -  
Max Temperature 75 °F 56 °F 78 °F (2006)
Min Temperature 34 °F 29 °F 14 °F (2002)
Degree Days  
Heating Degree Days 10    
Growing Degree Days 6 (Base 50)    
Moisture  
Dew Point 26 °F    
Average Humidity 35    
Maximum Humidity 87    
Minimum Humidity 16    
Precipitation  
Precipitation 0.02 in - - ()
Sea Level Pressure  
Sea Level Pressure 29.82 in    
Wind  
Wind Speed 12 mph (SSW)    
Max Wind Speed 26 mph    
Max Gust Speed 34 mph    
Visibility 12 miles    
Events Rain    
Averages and records for this station are not official NWS values.
T = Trace of Precipitation, MM = Missing Value Source: NWS Daily Summary

Daily Weather History Graph

Daily Weather History Graph

Search for Another Location

Airport or City:

Trip Planner

Search our weather history database for the weather conditions in past years. The results will help you decide how hot, cold, wet, or windy it might be!

Date:

Astronomy

Mar. 01, 2014 Rise Set
Actual Time 6:24 AM MST 5:51 PM MST
Civil Twilight 5:58 AM MST 6:16 PM MST
Nautical Twilight 5:29 AM MST 6:45 PM MST
Astronomical Twilight 5:00 AM MST 7:14 PM MST
Moon 6:21 AM MST (3/1) 6:37 PM MST (3/1)
Length of Visible Light 12h 17m
Length of Day
11h 27m
New Moon, 0% of the Moon is Illuminated
Mar 1
New Moon
Mar 8
First Quarter
Mar 16
Full
Mar 23
Last Quarter
Mar 30
New

Hourly Weather History & Observations

Time (MST) Temp. Windchill Dew Point Humidity Pressure Visibility Wind Dir Wind Speed Gust Speed Precip Events Conditions
12:56 AM 41.0 °F 39.0 °F 18.3 °F 40% 29.86 in 12.0 mi South 3.5 mph - N/A   Clear
1:56 AM 43.3 °F 40.7 °F 19.4 °F 38% 29.84 in 12.0 mi West 4.6 mph - N/A   Clear
2:56 AM 41.4 °F 39.4 °F 19.0 °F 41% 29.83 in 12.0 mi SSE 3.5 mph - N/A   Clear
3:56 AM 48.6 °F - 19.4 °F 32% 29.80 in 12.0 mi SSW 11.5 mph - N/A   Clear
4:56 AM 47.8 °F - 18.5 °F 31% 29.79 in 12.0 mi SSW 12.7 mph - N/A   Clear
5:56 AM 55.0 °F - 25.3 °F 32% 29.78 in 12.0 mi South 18.4 mph - N/A   Clear
6:56 AM 53.8 °F - 25.5 °F 34% 29.85 in 12.0 mi SSW 12.7 mph - N/A   Clear
7:56 AM 58.6 °F - 26.1 °F 29% 29.83 in 12.0 mi SSW 23.0 mph 27.6 mph N/A   Clear
8:56 AM 61.5 °F - 26.1 °F 26% 29.87 in 12.0 mi SSW 19.6 mph 31.1 mph N/A   Clear
9:56 AM 66.9 °F - 25.2 °F 21% 29.83 in 12.0 mi South 21.9 mph 27.6 mph N/A   Clear
10:56 AM 69.6 °F - 24.8 °F 19% 29.80 in 12.0 mi SSW 18.4 mph 27.6 mph N/A   Clear
11:56 AM 71.2 °F - 25.9 °F 18% 29.78 in 12.0 mi SW 15.0 mph 27.6 mph N/A   Clear
12:56 PM 73.6 °F - 27.5 °F 18% 29.76 in 12.0 mi SW 23.0 mph 33.4 mph N/A   Clear
1:56 PM 75.2 °F - 26.2 °F 16% 29.71 in 12.0 mi SW 20.7 mph 31.1 mph N/A   Clear
2:56 PM 73.0 °F - 26.1 °F 17% 29.73 in 12.0 mi SW 26.5 mph 34.5 mph N/A   Clear
3:56 PM 71.6 °F - 25.7 °F 18% 29.72 in 12.0 mi WSW 18.4 mph 28.8 mph N/A   Clear
4:56 PM 68.9 °F - 26.6 °F 20% 29.75 in 12.0 mi WSW 15.0 mph 26.5 mph N/A   Clear
5:56 PM 65.7 °F - 30.4 °F 27% 29.78 in 12.0 mi West 21.9 mph 27.6 mph N/A   Mostly Cloudy
6:56 PM 62.6 °F - 33.3 °F 33% 29.81 in 12.0 mi West 16.1 mph 26.5 mph N/A   Mostly Cloudy
7:56 PM 57.2 °F - 38.5 °F 50% 29.86 in 12.0 mi WNW 23.0 mph 32.2 mph N/A   Mostly Cloudy
8:56 PM 46.0 °F 40.2 °F 28.2 °F 50% 29.93 in 12.0 mi NE 12.7 mph - N/A   Mostly Cloudy
9:56 PM 38.3 °F 30.9 °F 28.0 °F 67% 29.95 in 12.0 mi ENE 11.5 mph - N/A Rain Light Rain Showers
10:56 PM 36.0 °F 29.6 °F 28.2 °F 73% 29.93 in 12.0 mi East 8.1 mph - N/A Rain Light Rain Showers
11:56 PM 34.0 °F 27.2 °F 30.4 °F 87% 29.94 in 8.0 mi ENE 8.1 mph - 0.02 in Rain Light Rain Showers